Regional Weather Roundup
Issued by NWS

Home | Current Version | Previous Version | Graphics & Text | Print | Product List | Glossary On
Versions: 1 2 3 4 5 6 7 8 9 10 11 12 13 14 15 16 17 18 19 20 21 22 23 24 25 26 27 28 29 30 31 32 33 34 35 36 37 38 39 40 41 42 43 44 45 46 47 48 49 50
000
ASUS43 KIND 251809
RWRIN

WEATHER ROUNDUP FOR INDIANA
NATIONAL WEATHER SERVICE INDIANAPOLIS IN
200 PM EDT THU MAY 25 2017

NOTE: "FAIR" INDICATES FEW OR NO CLOUDS BELOW 12,000 FEET WITH NO
SIGNIFICANT WEATHER AND/OR OBSTRUCTIONS TO VISIBILITY.

* - STATION DOES NOT REPORT WEATHER SUCH AS PRECIPITATION OR FOG.

+ - STATION NOT QUALITY CONTROLLED BY THE NATIONAL WEATHER SERVICE.
    USE DATA WITH CAUTION...ESPECIALLY DEWPOINT AND RELATIVE
    HUMIDITY OBSERVATIONS.

INZ001>003-010>013-019-020-251900-
NORTHWEST INDIANA

CITY           SKY/WX    TMP DP  RH WIND       PRES   REMARKS
GARY /AIRPORT/ PTSUNNY  N/A N/A N/A N14G25    29.64
KNOX *+        CLOUDY    57  48  72 NW13G21   29.60R
LA PORTE +     CLOUDY    56  52  88 NW13G18   29.61R
6HR MIN TEMP:  51; 6HR MAX TEMP:  57;

MICHIGAN CITY+ CLOUDY    50  50 100 N6        29.62R
MONTICELLO +   CLOUDY    58  54  86 N16G22    29.61R
6HR MIN TEMP:  53; 6HR MAX TEMP:  59;

RENSSELAER +   CLOUDY    59  54  82 NW12G18   29.63R
VALPARAISO     MOSUNNY   59  54  83 NW10      29.61S
6HR MIN TEMP:  52; 6HR MAX TEMP:  59;


$$

LMZ046-743>745-251900-
SOUTHERN LAKE MICHIGAN

STATION/POSITION TIME  TEMP    WIND        PRES    WAVE
                       AIR SEA DIR/SP/G            HT
                 (UTC) (F)     (DEG/KT/KT) (MB)    (FT)
BURNS HARBOR     1740   50     320/ 13/ 16 1003.7S
MICHIGAN CITY    1740   48     290/ 15/ 16   N/A
5NW MICH CITY    1800   48 51  310/ 14/ 17   N/A     5

$$

INZ004-005-014>016-021>024-251900-
NORTH CENTRAL INDIANA

CITY           SKY/WX    TMP DP  RH WIND       PRES   REMARKS
ELKHART        CLOUDY    59  55  88 NW6       29.57R
GOSHEN         CLOUDY    61  55  81 NW14      29.55S
6HR MIN TEMP:  59; 6HR MAX TEMP:  62;

LOGANSPORT +   CLOUDY    57  54  88 NW9G16    29.60R
PERU/GRISSOM   CLOUDY    61  59  92 NW17      29.56R
6HR MIN TEMP:  57; 6HR MAX TEMP:  62; 6HR PCP: TRACE;

ROCHESTER +    CLOUDY    63  55  77 NW16      29.58R
SOUTH BEND     CLOUDY    58  55  90 NW13      29.59R
6HR MIN TEMP:  55; 6HR MAX TEMP:  59;

WARSAW +       CLOUDY    59  55  88 N10       29.55S

$$

INZ006>009-017-018-025>027-251900-
NORTHEAST INDIANA

CITY           SKY/WX    TMP DP  RH WIND       PRES   REMARKS
ANGOLA *+      CLOUDY    57  48  72 VRB7      29.53S
AUBURN +       CLOUDY    61  57  88 N8        29.53S FOG
FORT WAYNE     CLOUDY    62  57  83 NW12      29.53R
6HR MIN TEMP:  60; 6HR MAX TEMP:  63; 6HR PCP: TRACE;

HUNTINGTON +   CLOUDY    60  59  96 N7G16     29.54R
                                      6HR PCP:  0.17;

KENDALLVILLE + LGT RAIN  59  58  96 N10G16    29.54S

$$

INZ028-029-035-036-043>045-051>053-251900-
WEST CENTRAL INDIANA

CITY           SKY/WX    TMP DP  RH WIND       PRES   REMARKS
CRAWFORDSVL +  CLOUDY    62  57  85 NW17G23   29.61S
6HR MIN TEMP:  52; 6HR MAX TEMP:  62; 6HR PCP:  0.02;

GREENCASTLE +  CLOUDY    63  54  72 NW8       29.62S
LAFAYETTE      CLOUDY    61  56  83 NW17G26   29.61R
6HR MIN TEMP:  54; 6HR MAX TEMP:  63;

TERRE HAUTE    CLOUDY    63  54  72 NW15G23   29.65R
6HR MIN TEMP:  57; 6HR MAX TEMP:  63;


$$

INZ030>032-037>040-046>048-054>057-064-065-251900-
CENTRAL INDIANA

CITY           SKY/WX    TMP DP  RH WIND       PRES   REMARKS
ANDERSON       CLOUDY   N/A N/A N/A NW17      29.57  FOG
CP ATTERBURY + CLOUDY    61  55  82 NW10G18   29.60R
COLUMBUS       CLOUDY    59  55  88 NW16G23   29.59R
FISHERS *+     CLOUDY    59  57  94 NW8G22    29.59R
FRANKFORT +    CLOUDY    62  57  84 N14G21    29.62R
6HR MIN TEMP:  56; 6HR MAX TEMP:  62; 6HR PCP:  0.01;

GREENWOOD *+   CLOUDY    61  56  84 NW15G22   29.59R
INDIANAPOLIS   CLOUDY    61  56  83 NW16G22   29.59S
6HR MIN TEMP:  55; 6HR MAX TEMP:  61; 6HR PCP:  0.11;

-EAGLE CREEK   CLOUDY    60  55  83 NW12      29.59R
6HR MIN TEMP:  56; 6HR MAX TEMP:  61; 6HR PCP:  0.11;

KOKOMO +       CLOUDY    61  56  83 NW18G25   29.58R
6HR MIN TEMP:  57; 6HR MAX TEMP:  61; 6HR PCP:  0.02;

MARION +       CLOUDY    57  55  94 NW14      29.56R FOG
MT COMFORT *+  CLOUDY    59  55  88 NW12G18   29.58R
SHELBYVILLE    CLOUDY    62  56  80 NW17G24   29.56R
6HR MIN TEMP:  58; 6HR MAX TEMP:  62; 6HR PCP:  0.01;

ZIONSVILLE +   CLOUDY    58  55  88 NW15G21   29.60R
6HR MIN TEMP:  53; 6HR MAX TEMP:  58; 6HR PCP:  0.03;


$$

INZ033-034-041-042-049-050-058-059-251900-
EAST CENTRAL INDIANA

CITY           SKY/WX    TMP DP  RH WIND       PRES   REMARKS
MUNCIE         CLOUDY    62  58  86 NW16G26   29.54R
6HR MIN TEMP:  60; 6HR MAX TEMP:  63;

RICHMOND +     CLOUDY    63  61  94 NW18G24   29.50R

$$

INZ060-061-067>069-081>083-085>088-251900-
SOUTHWEST INDIANA

CITY           SKY/WX    TMP DP  RH WIND       PRES   REMARKS
EVANSVILLE     CLOUDY    69  55  60 W12       29.69S
6HR MIN TEMP:  59; 6HR MAX TEMP:  69;

HUNTINGBURG *+ CLOUDY    65  58  78 W18G25    29.67R
6HR MIN TEMP:  58; 6HR MAX TEMP:  66;

WASHINGTON +   CLOUDY    65  54  68 NW20      29.66R
6HR MIN TEMP:  58; 6HR MAX TEMP:  65;


$$

INZ062-063-066-070>080-084-089>092-251900-
SOUTH CENTRAL AND SOUTHEAST INDIANA

CITY           SKY/WX    TMP DP  RH WIND       PRES   REMARKS
BEDFORD +      CLOUDY    63  55  77 W12G23    29.62R
BLOOMINGTON    CLOUDY    62  54  74 NW9       29.62R
6HR MIN TEMP:  56; 6HR MAX TEMP:  62; 6HR PCP:  0.05;

MADISON *+     CLOUDY    59  55  88 W9G20     29.60R
NORTH VERNON + CLOUDY    59  55  88 W16G23    29.59R
SEYMOUR +      CLOUDY   N/A N/A N/A NW14G22   29.59R

$$





USA.gov is the U.S. government's official web portal to all federal, state and local government web resources and services.